Regional Weather Roundup
Issued by NWS New Orleans/Baton Rouge, LA

Home | Current Version | Previous Version | Text Only | Print | Product List | Glossary On
Versions: 1 2 3 4 5 6 7 8 9 10 11 12 13 14 15 16 17 18 19 20 21 22 23 24 25 26 27 28 29 30 31 32 33 34 35 36 37 38 39 40 41 42 43 44 45 46 47 48 49 50
000
ASUS44 KLIX 201312
RWRLIX
NEW ORLEANS REGIONAL WEATHER ROUNDUP
NATIONAL WEATHER SERVICE NEW ORLEANS LA
700 AM CST MON FEB 20 2017

NOTE: "FAIR" INDICATES FEW OR NO CLOUDS BELOW 12,000 FEET WITH NO
      SIGNIFICANT WEATHER AND/OR OBSTRUCTIONS TO VISIBILITY.
      SKY/WX - SKY CONDITION AND SIGNIFICANT WEATHER.
      TMP - AIR TEMPERATURE.     DP    - DEWPOINT TEMPERATURE.
      RH  - RELATIVE HUMIDITY.   PRES  - PRESSURE.
      HI  - HEAT INDEX.          WCI   - WIND CHILL INDEX.

*  THESE STATIONS ARE NOT NWS OR FAA STATIONS AND ARE NOT UNDER
   NWS QUALITY CONTROL.

LAZ038-040-048-061>063-065>067-069-201400-
SOUTHEAST LOUISIANA

CITY           SKY/WX    TMP DP  RH WIND       PRES   REMARKS
N.O. AUDUBON   NOT AVBL
N.O. INTL ARPT CLOUDY    67  67 100 SE12      30.03S FOG
N.O. LAKEFRONT CLOUDY    67  66  97 SE8       30.04F FOG
N.O. DOWNTOWN*   N/A     67  66  97 S7        30.05S
RESERVE*       CLOUDY    69  67  93 SE8       30.02S FOG
SLIDELL        CLOUDY    64  63  96 SE5       30.05S
BATON ROUGE    CLOUDY    68  66  93 SE7       30.01R
BOOTHVILLE     FOG       62  62 100 CALM      30.06R VSB<1/4
BELLE CHASSE   CLOUDY    67  67 100 SE12      30.04S
BOGALUSA*      CLOUDY    62  58  89 SE5       30.08S
GALLIANO*      MOSUNNY   68  65  89 E7        30.03S
NEW ROADS*     CLOUDY    66  65  96 SE5       30.01R
GONZALES*      CLOUDY    68  67  96 SE6       29.99F
HAMMOND*       CLOUDY    66  63  88 E8        30.03S FOG
HOUMA*         MOCLDY    68  68 100 SE9       30.01F
PORT FOURCHON* MOSUNNY   68  68 100 SE12      30.03R FOG

$$

MSZ070-080>082-201400-
SOUTHERN MISSISSIPPI

CITY           SKY/WX    TMP DP  RH WIND       PRES   REMARKS
MCCOMB         FOG       58  57  97 SE8       30.03F VSB 1/4
GULFPORT       CLOUDY    64  64 100 E7        30.06R FOG
BILOXI         FOG       64  64 100 E9        30.06S VSB 1/4
PASCAGOULA     FOG       61  59  93 CALM      30.08R VSB 1/4
STENNIS ARPT*  FOG       63  61  94 E5        30.07  VSB 1/2

$$

COASTAL OBSERVATIONS
LAKE AND NEARSHORE STATIONS

STATION/POSITION TIME  TEMP    WIND        PRES    WAVE
                       AIR SEA DIR/SP/G            HT/PER
                 (UTC) (F)     (DEG/KT/KT) (MB)    (FT/S)
PASCAGOULA       1242   64      70/  9/ 12 1017.7
WAVELAND YACHT   1242   63 64  110/  6/  8 1017.6
GRAND ISLE       1242   68 66  120/  4/  6 1017.1
SOUTHWEST PASS   1242          140/ 13/ 16   N/A
NEW CANAL        1242   67 64  150/  6/ 11 1016.3
SHELL BEACH      1242   65 66  170/  6/  8 1017.6

OFFSHORE STATIONS

STATION/POSITION TIME  TEMP    WIND        PRES    WAVE
                       AIR SEA DIR/SP/G            HT/PER
                 (UTC) (F)     (DEG/KT/KT) (MB)    (FT/S)

$$




USA.gov is the U.S. government's official web portal to all federal, state and local government web resources and services.